Time,TemperatureF,DewpointF,PressureIn,WindDirection,WindDirectionDegrees,WindSpeedMPH,WindSpeedGustMPH,Humidity,HourlyPrecipIn,Conditions,Clouds,dailyrainin,SoftwareType,DateUTC
2013-01-04 00:05:00,29.5,14.9,30.08,ENE,71,0.0,0.0,54,0.00,,,0.00,Wunderground v.1.15,2013-01-04 05:05:00,
2013-01-04 00:10:00,29.4,16.0,30.08,ENE,71,0.0,0.0,57,0.00,,,0.00,Wunderground v.1.15,2013-01-04 05:10:00,
2013-01-04 00:15:00,29.3,15.9,30.08,ENE,71,0.0,1.0,57,0.00,,,0.00,Wunderground v.1.15,2013-01-04 05:15:00,
2013-01-04 00:20:00,29.0,17.6,30.08,ENE,71,0.0,1.0,62,0.00,,,0.00,Wunderground v.1.15,2013-01-04 05:20:00,
2013-01-04 00:30:00,28.5,17.1,30.09,ENE,71,1.0,1.0,62,0.00,,,0.00,Wunderground v.1.15,2013-01-04 05:30:00,
2013-01-04 00:40:00,28.5,16.4,30.08,ENE,71,1.0,1.0,60,0.00,,,0.00,Wunderground v.1.15,2013-01-04 05:40:00,
2013-01-04 00:45:00,28.5,17.1,30.09,ENE,71,1.0,1.0,62,0.00,,,0.00,Wunderground v.1.15,2013-01-04 05:45:00,
2013-01-04 00:50:00,28.5,16.4,30.09,ENE,59,1.0,1.0,60,0.00,,,0.00,Wunderground v.1.15,2013-01-04 05:50:00,
2013-01-04 01:00:00,28.5,16.7,30.08,ENE,59,1.0,1.0,61,0.00,,,0.00,Wunderground v.1.15,2013-01-04 06:00:00,
2013-01-04 01:10:00,28.4,16.3,30.08,ENE,59,1.0,1.0,60,0.00,,,0.00,Wunderground v.1.15,2013-01-04 06:10:00,
2013-01-04 01:20:00,28.2,15.3,30.08,ENE,59,1.0,1.0,58,0.00,,,0.00,Wunderground v.1.15,2013-01-04 06:20:00,
2013-01-04 01:30:00,28.4,14.7,30.07,East,95,2.0,2.0,56,0.00,,,0.00,Wunderground v.1.15,2013-01-04 06:30:00,
2013-01-04 01:40:00,28.4,13.9,30.07,East,95,1.0,1.0,54,0.00,,,0.00,Wunderground v.1.15,2013-01-04 06:40:00,
2013-01-04 01:45:00,28.4,15.9,30.07,East,95,1.0,1.0,59,0.00,,,0.00,Wunderground v.1.15,2013-01-04 06:45:00,
2013-01-04 01:55:00,27.6,16.3,30.08,East,95,0.0,0.0,62,0.00,,,0.00,Wunderground v.1.15,2013-01-04 06:55:00,
2013-01-04 02:00:00,27.5,14.6,30.08,East,95,0.0,0.0,58,0.00,,,0.00,Wunderground v.1.15,2013-01-04 07:00:00,
2013-01-04 02:10:00,27.3,15.6,30.08,East,95,0.0,1.0,61,0.00,,,0.00,Wunderground v.1.15,2013-01-04 07:10:00,
2013-01-04 02:20:00,27.2,14.4,30.08,East,95,0.0,1.0,58,0.00,,,0.00,Wunderground v.1.15,2013-01-04 07:20:00,
2013-01-04 02:30:00,26.9,14.9,30.07,East,95,1.0,1.0,60,0.00,,,0.00,Wunderground v.1.15,2013-01-04 07:30:00,
2013-01-04 02:40:00,26.7,16.5,30.07,ENE,77,1.0,1.0,65,0.00,,,0.00,Wunderground v.1.15,2013-01-04 07:40:00,
2013-01-04 02:50:00,26.4,16.6,30.07,ENE,64,1.0,1.0,66,0.00,,,0.00,Wunderground v.1.15,2013-01-04 07:50:00,
2013-01-04 03:00:00,26.1,17.0,30.08,ENE,64,1.0,1.0,68,0.00,,,0.00,Wunderground v.1.15,2013-01-04 08:00:00,
2013-01-04 03:05:00,26.0,17.2,30.09,ENE,64,0.0,1.0,69,0.00,,,0.00,Wunderground v.1.15,2013-01-04 08:05:00,
2013-01-04 03:15:00,25.6,17.5,30.09,ENE,64,0.0,0.0,71,0.00,,,0.00,Wunderground v.1.15,2013-01-04 08:15:00,
2013-01-04 03:25:00,25.1,16.7,30.08,East,86,1.0,1.0,70,0.00,,,0.00,Wunderground v.1.15,2013-01-04 08:25:00,
2013-01-04 03:35:00,25.8,16.0,30.08,East,92,2.0,2.0,66,0.00,,,0.00,Wunderground v.1.15,2013-01-04 08:35:00,
2013-01-04 03:40:00,26.0,15.8,30.09,East,92,1.0,1.0,65,0.00,,,0.00,Wunderground v.1.15,2013-01-04 08:40:00,
2013-01-04 03:50:00,26.0,15.8,30.08,East,79,2.0,2.0,65,0.00,,,0.00,Wunderground v.1.15,2013-01-04 08:50:00,
2013-01-04 04:00:00,26.0,16.2,30.08,East,86,1.0,1.0,66,0.00,,,0.00,Wunderground v.1.15,2013-01-04 09:00:00,
2013-01-04 04:10:00,25.6,17.2,30.07,ENE,69,1.0,3.0,70,0.00,,,0.00,Wunderground v.1.15,2013-01-04 09:10:00,
2013-01-04 04:20:00,25.6,16.8,30.06,ENE,62,2.0,2.0,69,0.00,,,0.00,Wunderground v.1.15,2013-01-04 09:20:00,
2013-01-04 04:30:00,25.4,17.3,30.07,NNE,30,1.0,2.0,71,0.00,,,0.00,Wunderground v.1.15,2013-01-04 09:30:00,
2013-01-04 04:40:00,25.4,17.3,30.07,NNE,24,1.0,2.0,71,0.00,,,0.00,Wunderground v.1.15,2013-01-04 09:40:00,
2013-01-04 04:50:00,25.3,17.5,30.07,NE,49,1.0,1.0,72,0.00,,,0.00,Wunderground v.1.15,2013-01-04 09:50:00,
2013-01-04 05:00:00,25.1,18.3,30.07,NE,49,1.0,1.0,75,0.00,,,0.00,Wunderground v.1.15,2013-01-04 10:00:00,
2013-01-04 05:10:00,24.8,18.0,30.08,NE,49,0.0,1.0,75,0.00,,,0.00,Wunderground v.1.15,2013-01-04 10:10:00,
2013-01-04 05:20:00,24.5,18.0,30.08,ENE,63,1.0,3.0,76,0.00,,,0.00,Wunderground v.1.15,2013-01-04 10:20:00,
2013-01-04 05:30:00,24.7,18.2,30.09,ENE,63,1.0,1.0,76,0.00,,,0.00,Wunderground v.1.15,2013-01-04 10:30:00,
2013-01-04 05:40:00,24.7,18.2,30.09,ENE,63,1.0,2.0,76,0.00,,,0.00,Wunderground v.1.15,2013-01-04 10:40:00,
2013-01-04 05:50:00,24.5,18.0,30.10,ENE,63,1.0,2.0,76,0.00,,,0.00,Wunderground v.1.15,2013-01-04 10:50:00,
2013-01-04 05:55:00,24.4,18.2,30.09,NE,53,1.0,2.0,77,0.00,,,0.00,Wunderground v.1.15,2013-01-04 10:55:00,
2013-01-04 06:05:00,24.5,17.7,30.10,NE,43,1.0,2.0,75,0.00,,,0.00,Wunderground v.1.15,2013-01-04 11:05:00,
2013-01-04 06:10:00,24.4,18.2,30.11,NE,43,0.0,1.0,77,0.00,,,0.00,Wunderground v.1.15,2013-01-04 11:10:00,
2013-01-04 06:20:00,23.9,18.3,30.11,NE,43,1.0,1.0,79,0.00,,,0.00,Wunderground v.1.15,2013-01-04 11:20:00,
2013-01-04 06:30:00,24.1,18.2,30.11,ENE,60,2.0,2.0,78,0.00,,,0.00,Wunderground v.1.15,2013-01-04 11:30:00,
2013-01-04 06:35:00,24.2,17.7,30.11,ENE,60,2.0,2.0,76,0.00,,,0.00,Wunderground v.1.15,2013-01-04 11:35:00,
2013-01-04 06:45:00,24.2,17.7,30.12,ENE,60,1.0,1.0,76,0.00,,,0.00,Wunderground v.1.15,2013-01-04 11:45:00,
2013-01-04 06:50:00,24.1,18.2,30.12,ENE,60,1.0,1.0,78,0.00,,,0.00,Wunderground v.1.15,2013-01-04 11:50:00,
2013-01-04 07:00:00,23.8,18.2,30.12,ENE,60,0.0,0.0,79,0.00,,,0.00,Wunderground v.1.15,2013-01-04 12:00:00,
2013-01-04 07:10:00,23.8,18.5,30.11,ENE,60,0.0,0.0,80,0.00,,,0.00,Wunderground v.1.15,2013-01-04 12:10:00,
2013-01-04 07:20:00,23.6,18.6,30.12,ENE,60,0.0,0.0,81,0.00,,,0.00,Wunderground v.1.15,2013-01-04 12:20:00,
2013-01-04 07:30:00,23.6,18.6,30.12,ENE,60,0.0,0.0,81,0.00,,,0.00,Wunderground v.1.15,2013-01-04 12:30:00,
2013-01-04 07:40:00,23.5,18.2,30.13,ENE,60,0.0,0.0,80,0.00,,,0.00,Wunderground v.1.15,2013-01-04 12:40:00,
2013-01-04 07:50:00,23.3,18.3,30.13,ENE,60,0.0,0.0,81,0.00,,,0.00,Wunderground v.1.15,2013-01-04 12:50:00,
2013-01-04 08:00:00,23.3,18.3,30.14,ENE,60,0.0,0.0,81,0.00,,,0.00,Wunderground v.1.15,2013-01-04 13:00:00,
2013-01-04 08:10:00,23.3,18.3,30.14,ENE,60,0.0,0.0,81,0.00,,,0.00,Wunderground v.1.15,2013-01-04 13:10:00,
2013-01-04 08:20:00,23.3,18.3,30.14,ENE,60,0.0,1.0,81,0.00,,,0.00,Wunderground v.1.15,2013-01-04 13:20:00,
2013-01-04 08:25:00,23.5,18.5,30.14,ENE,60,0.0,1.0,81,0.00,,,0.00,Wunderground v.1.15,2013-01-04 13:25:00,
2013-01-04 08:35:00,23.5,18.5,30.15,ENE,60,0.0,0.0,81,0.00,,,0.00,Wunderground v.1.15,2013-01-04 13:35:00,
2013-01-04 08:45:00,23.9,18.6,30.15,ENE,60,0.0,1.0,80,0.00,,,0.00,Wunderground v.1.15,2013-01-04 13:45:00,
2013-01-04 08:50:00,24.2,18.3,30.16,NE,47,0.0,0.0,78,0.00,,,0.00,Wunderground v.1.15,2013-01-04 13:50:00,
2013-01-04 09:00:00,24.8,18.0,30.15,NE,47,0.0,0.0,75,0.00,,,0.00,Wunderground v.1.15,2013-01-04 14:00:00,
2013-01-04 09:10:00,25.3,18.2,30.16,NE,47,0.0,2.0,74,0.00,,,0.00,Wunderground v.1.15,2013-01-04 14:10:00,
2013-01-04 09:20:00,25.7,18.2,30.15,NE,46,1.0,1.0,73,0.00,,,0.00,Wunderground v.1.15,2013-01-04 14:20:00,
2013-01-04 09:30:00,26.1,18.3,30.15,NE,46,0.0,0.0,72,0.00,,,0.00,Wunderground v.1.15,2013-01-04 14:30:00,
2013-01-04 09:40:00,26.6,18.1,30.15,NE,46,0.0,0.0,70,0.00,,,0.00,Wunderground v.1.15,2013-01-04 14:40:00,
2013-01-04 09:50:00,27.0,18.2,30.15,NE,46,0.0,0.0,69,0.00,,,0.00,Wunderground v.1.15,2013-01-04 14:50:00,
2013-01-04 10:00:00,27.5,18.0,30.15,NE,46,0.0,1.0,67,0.00,,,0.00,Wunderground v.1.15,2013-01-04 15:00:00,
2013-01-04 10:10:00,28.2,17.9,30.15,NE,46,1.0,2.0,65,0.00,,,0.00,Wunderground v.1.15,2013-01-04 15:10:00,
2013-01-04 10:20:00,29.0,18.0,30.14,NE,46,1.0,1.0,63,0.00,,,0.00,Wunderground v.1.15,2013-01-04 15:20:00,
2013-01-04 10:30:00,29.5,17.7,30.14,NE,46,0.0,0.0,61,0.00,,,0.00,Wunderground v.1.15,2013-01-04 15:30:00,
2013-01-04 10:40:00,30.3,17.7,30.14,NE,46,0.0,0.0,59,0.00,,,0.00,Wunderground v.1.15,2013-01-04 15:40:00,
2013-01-04 10:50:00,31.0,19.1,30.15,NE,46,0.0,0.0,61,0.00,,,0.00,Wunderground v.1.15,2013-01-04 15:50:00,
2013-01-04 11:00:00,31.6,18.5,30.14,NE,46,0.0,0.0,58,0.00,,,0.00,Wunderground v.1.15,2013-01-04 16:00:00,
2013-01-04 11:10:00,32.5,18.5,30.14,NE,46,0.0,0.0,56,0.00,,,0.00,Wunderground v.1.15,2013-01-04 16:10:00,
2013-01-04 11:20:00,33.1,17.8,30.14,NE,46,0.0,0.0,53,0.00,,,0.00,Wunderground v.1.15,2013-01-04 16:20:00,
2013-01-04 11:30:00,34.0,17.7,30.13,WNW,300,1.0,1.0,51,0.00,,,0.00,Wunderground v.1.15,2013-01-04 16:30:00,
2013-01-04 11:40:00,34.7,16.5,30.13,North,5,1.0,1.0,47,0.00,,,0.00,Wunderground v.1.15,2013-01-04 16:40:00,
2013-01-04 11:45:00,34.9,17.2,30.12,North,5,1.0,1.0,48,0.00,,,0.00,Wunderground v.1.15,2013-01-04 16:45:00,
2013-01-04 11:50:00,35.2,16.5,30.12,NNE,15,0.0,1.0,46,0.00,,,0.00,Wunderground v.1.15,2013-01-04 16:50:00,
2013-01-04 12:00:00,35.9,16.6,30.11,West,265,1.0,1.0,45,0.00,,,0.00,Wunderground v.1.15,2013-01-04 17:00:00,
2013-01-04 12:10:00,36.5,17.7,30.10,NNE,28,0.0,0.0,46,0.00,,,0.00,Wunderground v.1.15,2013-01-04 17:10:00,
2013-01-04 12:20:00,37.3,15.2,30.09,West,269,1.0,1.0,40,0.00,,,0.00,Wunderground v.1.15,2013-01-04 17:20:00,
2013-01-04 12:30:00,38.8,15.9,30.08,West,270,1.0,2.0,39,0.00,,,0.00,Wunderground v.1.15,2013-01-04 17:30:00,
2013-01-04 12:40:00,38.9,16.0,30.07,SW,235,2.0,2.0,39,0.00,,,0.00,Wunderground v.1.15,2013-01-04 17:40:00,
2013-01-04 12:45:00,39.1,15.0,30.07,West,268,2.0,2.0,37,0.00,,,0.00,Wunderground v.1.15,2013-01-04 17:45:00,
2013-01-04 12:55:00,39.5,17.1,30.07,West,276,1.0,2.0,40,0.00,,,0.00,Wunderground v.1.15,2013-01-04 17:55:00,
2013-01-04 13:05:00,40.1,16.5,30.07,West,262,1.0,2.0,38,0.00,,,0.00,Wunderground v.1.15,2013-01-04 18:05:00,
2013-01-04 13:10:00,40.2,14.0,30.07,West,262,1.0,1.0,34,0.00,,,0.00,Wunderground v.1.15,2013-01-04 18:10:00,
2013-01-04 13:20:00,40.9,16.0,30.06,West,262,0.0,0.0,36,0.00,,,0.00,Wunderground v.1.15,2013-01-04 18:20:00,
2013-01-04 13:30:00,41.6,16.6,30.06,West,262,0.0,0.0,36,0.00,,,0.00,Wunderground v.1.15,2013-01-04 18:30:00,
2013-01-04 13:40:00,42.5,13.9,30.05,WNW,296,0.0,1.0,31,0.00,,,0.00,Wunderground v.1.15,2013-01-04 18:40:00,
2013-01-04 13:50:00,42.8,14.2,30.04,NW,321,0.0,0.0,31,0.00,,,0.00,Wunderground v.1.15,2013-01-04 18:50:00,
2013-01-04 14:00:00,42.5,12.4,30.03,SW,234,1.0,1.0,29,0.00,,,0.00,Wunderground v.1.15,2013-01-04 19:00:00,
2013-01-04 14:10:00,42.8,14.2,30.04,West,271,1.0,1.0,31,0.00,,,0.00,Wunderground v.1.15,2013-01-04 19:10:00,
2013-01-04 14:20:00,43.2,16.0,30.03,SSW,205,1.0,2.0,33,0.00,,,0.00,Wunderground v.1.15,2013-01-04 19:20:00,
2013-01-04 14:25:00,43.2,14.6,30.03,West,271,2.0,2.0,31,0.00,,,0.00,Wunderground v.1.15,2013-01-04 19:25:00,
2013-01-04 14:35:00,43.2,18.0,30.03,West,261,1.0,4.0,36,0.00,,,0.00,Wunderground v.1.15,2013-01-04 19:35:00,
2013-01-04 14:45:00,43.9,18.0,30.02,WSW,258,1.0,2.0,35,0.00,,,0.00,Wunderground v.1.15,2013-01-04 19:45:00,
2013-01-04 14:50:00,44.3,17.0,30.02,West,264,0.0,0.0,33,0.00,,,0.00,Wunderground v.1.15,2013-01-04 19:50:00,
2013-01-04 15:00:00,44.5,13.4,30.02,West,266,1.0,1.0,28,0.00,,,0.00,Wunderground v.1.15,2013-01-04 20:00:00,
2013-01-04 15:10:00,44.5,15.7,30.03,North,350,1.0,1.0,31,0.00,,,0.00,Wunderground v.1.15,2013-01-04 20:10:00,
2013-01-04 15:20:00,43.9,15.9,30.02,NE,38,1.0,1.0,32,0.00,,,0.00,Wunderground v.1.15,2013-01-04 20:20:00,
2013-01-04 15:30:00,43.6,14.9,30.03,West,275,1.0,1.0,31,0.00,,,0.00,Wunderground v.1.15,2013-01-04 20:30:00,
2013-01-04 15:40:00,44.2,13.1,30.03,West,263,2.0,2.0,28,0.00,,,0.00,Wunderground v.1.15,2013-01-04 20:40:00,
2013-01-04 15:50:00,43.9,14.4,30.04,ENE,60,1.0,1.0,30,0.00,,,0.00,Wunderground v.1.15,2013-01-04 20:50:00,
2013-01-04 16:00:00,43.8,12.8,30.04,West,263,1.0,2.0,28,0.00,,,0.00,Wunderground v.1.15,2013-01-04 21:00:00,
2013-01-04 16:05:00,43.8,12.8,30.05,West,274,1.0,3.0,28,0.00,,,0.00,Wunderground v.1.15,2013-01-04 21:05:00,
2013-01-04 16:15:00,43.1,13.7,30.06,West,279,1.0,5.0,30,0.00,,,0.00,Wunderground v.1.15,2013-01-04 21:15:00,
2013-01-04 16:25:00,42.2,17.1,30.07,West,279,1.0,3.0,36,0.00,,,0.00,Wunderground v.1.15,2013-01-04 21:25:00,
2013-01-04 16:30:00,41.8,16.8,30.07,West,272,1.0,4.0,36,0.00,,,0.00,Wunderground v.1.15,2013-01-04 21:30:00,
2013-01-04 16:40:00,41.2,12.8,30.06,WSW,250,2.0,2.0,31,0.00,,,0.00,Wunderground v.1.15,2013-01-04 21:40:00,
2013-01-04 16:50:00,40.3,12.7,30.06,WSW,254,1.0,1.0,32,0.00,,,0.00,Wunderground v.1.15,2013-01-04 21:50:00,
2013-01-04 17:00:00,39.6,12.1,30.07,NW,311,0.0,0.0,32,0.00,,,0.00,Wunderground v.1.15,2013-01-04 22:00:00,
2013-01-04 17:10:00,38.3,16.6,30.07,ENE,70,2.0,2.0,41,0.00,,,0.00,Wunderground v.1.15,2013-01-04 22:10:00,
2013-01-04 17:20:00,36.5,17.7,30.08,ENE,70,1.0,1.0,46,0.00,,,0.00,Wunderground v.1.15,2013-01-04 22:20:00,
2013-01-04 17:30:00,35.0,17.3,30.09,ENE,70,0.0,1.0,48,0.00,,,0.00,Wunderground v.1.15,2013-01-04 22:30:00,
2013-01-04 17:40:00,34.4,18.6,30.10,ENE,63,1.0,1.0,52,0.00,,,0.00,Wunderground v.1.15,2013-01-04 22:40:00,
2013-01-04 17:45:00,33.8,16.2,30.11,East,94,1.0,1.0,48,0.00,,,0.00,Wunderground v.1.15,2013-01-04 22:45:00,
2013-01-04 17:55:00,34.0,15.9,30.11,East,85,1.0,2.0,47,0.00,,,0.00,Wunderground v.1.15,2013-01-04 22:55:00,
2013-01-04 18:05:00,33.4,16.3,30.12,ESE,107,1.0,2.0,49,0.00,,,0.00,Wunderground v.1.15,2013-01-04 23:05:00,
2013-01-04 18:10:00,33.1,16.5,30.12,SE,126,1.0,3.0,50,0.00,,,0.00,Wunderground v.1.15,2013-01-04 23:10:00,
2013-01-04 18:20:00,32.4,16.3,30.13,NNE,30,2.0,2.0,51,0.00,,,0.00,Wunderground v.1.15,2013-01-04 23:20:00,
2013-01-04 18:30:00,31.8,16.6,30.13,East,88,1.0,2.0,53,0.00,,,0.00,Wunderground v.1.15,2013-01-04 23:30:00,
2013-01-04 18:40:00,31.3,16.6,30.14,East,82,2.0,2.0,54,0.00,,,0.00,Wunderground v.1.15,2013-01-04 23:40:00,
2013-01-04 18:50:00,30.9,16.2,30.14,ENE,65,2.0,2.0,54,0.00,,,0.00,Wunderground v.1.15,2013-01-04 23:50:00,
2013-01-04 19:00:00,30.6,16.3,30.14,East,86,2.0,2.0,55,0.00,,,0.00,Wunderground v.1.15,2013-01-05 00:00:00,
2013-01-04 19:10:00,30.4,17.0,30.14,ESE,106,1.0,1.0,57,0.00,,,0.00,Wunderground v.1.15,2013-01-05 00:10:00,
2013-01-04 19:20:00,30.3,15.6,30.15,ENE,59,1.0,1.0,54,0.00,,,0.00,Wunderground v.1.15,2013-01-05 00:20:00,
2013-01-04 19:25:00,30.4,15.3,30.15,ENE,69,1.0,3.0,53,0.00,,,0.00,Wunderground v.1.15,2013-01-05 00:25:00,
2013-01-04 19:35:00,30.6,14.6,30.15,ENE,57,1.0,1.0,51,0.00,,,0.00,Wunderground v.1.15,2013-01-05 00:35:00,
2013-01-04 19:45:00,30.6,14.6,30.15,ENE,59,1.0,1.0,51,0.00,,,0.00,Wunderground v.1.15,2013-01-05 00:45:00,
2013-01-04 19:50:00,30.6,14.6,30.15,ENE,63,0.0,1.0,51,0.00,,,0.00,Wunderground v.1.15,2013-01-05 00:50:00,
2013-01-04 20:00:00,30.1,15.0,30.16,East,84,1.0,1.0,53,0.00,,,0.00,Wunderground v.1.15,2013-01-05 01:00:00,
2013-01-04 20:10:00,30.0,14.5,30.16,NE,55,1.0,1.0,52,0.00,,,0.00,Wunderground v.1.15,2013-01-05 01:10:00,
2013-01-04 20:20:00,29.8,13.4,30.16,East,99,1.0,1.0,50,0.00,,,0.00,Wunderground v.1.15,2013-01-05 01:20:00,
2013-01-04 20:30:00,29.8,13.4,30.16,ENE,67,1.0,1.0,50,0.00,,,0.00,Wunderground v.1.15,2013-01-05 01:30:00,
2013-01-04 20:35:00,29.8,13.4,30.15,NNE,24,1.0,2.0,50,0.00,,,0.00,Wunderground v.1.15,2013-01-05 01:35:00,
2013-01-04 20:45:00,29.5,12.7,30.16,ENE,59,2.0,2.0,49,0.00,,,0.00,Wunderground v.1.15,2013-01-05 01:45:00,
2013-01-04 20:55:00,29.5,12.7,30.16,NNE,15,2.0,4.0,49,0.00,,,0.00,Wunderground v.1.15,2013-01-05 01:55:00,
2013-01-04 21:00:00,29.3,12.5,30.16,ENE,66,2.0,2.0,49,0.00,,,0.00,Wunderground v.1.15,2013-01-05 02:00:00,
2013-01-04 21:10:00,29.5,12.7,30.15,NE,45,2.0,2.0,49,0.00,,,0.00,Wunderground v.1.15,2013-01-05 02:10:00,
2013-01-04 21:20:00,29.3,12.9,30.16,ENE,70,1.0,1.0,50,0.00,,,0.00,Wunderground v.1.15,2013-01-05 02:20:00,
2013-01-04 21:30:00,28.8,13.8,30.16,NNE,17,1.0,1.0,53,0.00,,,0.00,Wunderground v.1.15,2013-01-05 02:30:00,
2013-01-04 21:40:00,28.4,14.3,30.16,East,95,0.0,0.0,55,0.00,,,0.00,Wunderground v.1.15,2013-01-05 02:40:00,
2013-01-04 21:50:00,27.8,15.3,30.17,ESE,112,1.0,3.0,59,0.00,,,0.00,Wunderground v.1.15,2013-01-05 02:50:00,
2013-01-04 22:00:00,27.5,15.8,30.16,ENE,77,1.0,1.0,61,0.00,,,0.00,Wunderground v.1.15,2013-01-05 03:00:00,
2013-01-04 22:05:00,27.2,15.5,30.16,NNW,346,0.0,1.0,61,0.00,,,0.00,Wunderground v.1.15,2013-01-05 03:05:00,
2013-01-04 22:10:00,27.2,15.5,30.16,NNE,29,1.0,1.0,61,0.00,,,0.00,Wunderground v.1.15,2013-01-05 03:10:00,
2013-01-04 22:20:00,26.9,15.6,30.16,ENE,60,0.0,0.0,62,0.00,,,0.00,Wunderground v.1.15,2013-01-05 03:20:00,
2013-01-04 22:30:00,26.6,16.1,30.16,East,99,1.0,1.0,64,0.00,,,0.00,Wunderground v.1.15,2013-01-05 03:30:00,
2013-01-04 22:40:00,26.6,16.1,30.16,East,95,0.0,0.0,64,0.00,,,0.00,Wunderground v.1.15,2013-01-05 03:40:00,
2013-01-04 22:50:00,26.3,16.1,30.16,East,95,0.0,0.0,65,0.00,,,0.00,Wunderground v.1.15,2013-01-05 03:50:00,
2013-01-04 23:00:00,26.1,16.3,30.16,East,95,0.0,0.0,66,0.00,,,0.00,Wunderground v.1.15,2013-01-05 04:00:00,
2013-01-04 23:10:00,25.7,16.3,30.14,SW,231,1.0,1.0,67,0.00,,,0.00,Wunderground v.1.15,2013-01-05 04:10:00,
2013-01-04 23:20:00,26.1,15.9,30.15,ENE,71,0.0,0.0,65,0.00,,,0.00,Wunderground v.1.15,2013-01-05 04:20:00,
2013-01-04 23:25:00,26.3,15.8,30.16,ENE,68,0.0,2.0,64,0.00,,,0.00,Wunderground v.1.15,2013-01-05 04:25:00,
2013-01-04 23:35:00,26.4,15.9,30.15,ENE,78,1.0,1.0,64,0.00,,,0.00,Wunderground v.1.15,2013-01-05 04:35:00,
2013-01-04 23:45:00,26.1,15.9,30.14,ENE,69,0.0,0.0,65,0.00,,,0.00,Wunderground v.1.15,2013-01-05 04:45:00,
2013-01-04 23:50:00,26.0,16.2,30.14,ENE,67,0.0,0.0,66,0.00,,,0.00,Wunderground v.1.15,2013-01-05 04:50:00,